Hourly Data Report for September 04, 2017

All times are specified in Local Standard Time (LST). Add 1 hour to adjust for Daylight Saving Time where and when it is observed.

BATHURST A
NEW BRUNSWICK

47°37'47.000" N
65°44'20.000" W
58.80 m
8100505
71574
ZBF

Download Data

Hourly Data (September 2017)
Hourly Data Report for September 4, 2017
Temp Definition
°C
Dew Point Temp Definition
°C
Rel Hum Definition
%
Wind Dir Definition
10's deg

Wind Spd Definition
km/h
Visibility Definition
km
Stn Press Definition
kPa
Hmdx Definition


Wind Chill Definition


Weather Definition


TIME
00:00 Legend Double Dagger 14.2 9.7 74 14 7 24.1 100.46     LegendNANA
01:00 Legend Double Dagger 13.6 9.8 78 13 11 24.1 100.31     LegendNANA
02:00 Legend Double Dagger 12.6 10.9 89 11 10 19.3 100.16     Cloudy
03:00 Legend Double Dagger 12.2 11.7 97 6 6 80.5 99.98     Rain
04:00 Legend Double Dagger 12.4 12.1 98 6 13 6.4 99.78     Moderate Rain,Fog
05:00 Legend Double Dagger 12.6 12.2 98 6 10 16.1 99.60     Rain
06:00 Legend Double Dagger 12.7 12.4 98 4 15 6.4 99.44     Moderate Rain,Fog
07:00 Legend Double Dagger 13.1 12.9 98 2 10 3.2 99.34     Rain,Fog
08:00 Legend Double Dagger 14.0 13.8 98 5 8 2.0 99.22     Drizzle,Fog
09:00 Legend Double Dagger 14.5 14.2 98 29 4 2.0 99.17     Fog
10:00 Legend Double Dagger 16.6 15.2 91 30 11 6.4 99.16     Drizzle,Fog
11:00 Legend Double Dagger 16.1 14.1 88 31 13 9.7 99.20     Drizzle,Fog
12:00 Legend Double Dagger 16.8 12.9 78 28 20 12.9 99.25     LegendNANA
13:00 Legend Double Dagger 17.2 11.9 70 28 22 19.3 99.35     LegendNANA
14:00 Legend Double Dagger 18.0 11.1 64 28 28 24.1 99.41     Mostly Cloudy
15:00 Legend Double Dagger 17.8 11.1 65 26 32 24.1 99.48     LegendNANA
16:00 Legend Double Dagger 18.1 11.2 64 28 21 24.1 99.55     LegendNANA
17:00 Legend Double Dagger 17.8 11.0 64 27 31 24.1 99.59     Mostly Cloudy
18:00 Legend Double Dagger 17.0 11.5 70 28 10 24.1 99.61     LegendNANA
19:00 Legend Double Dagger 14.9 11.7 81 18 6 24.1 99.71     LegendNANA
20:00 Legend Double Dagger 13.2 11.8 91 20 8 24.1 99.79     Mostly Cloudy
21:00 Legend Double Dagger 14.7 11.6 81 17 7 24.1 99.78     LegendNANA
22:00 Legend Double Dagger 16.6 12.2 75 21 8 24.1 99.73     LegendNANA
23:00 Legend Double Dagger 17.1 12.3 73 20 12 24.1 99.69     Cloudy

Notes on Data Quality.

Legend

  • E = Estimated
  • M = Missing
  • NA = Not Available
  • ‡ = Partner data that is not subject to review by the National Climate Archives
Date modified: